THOR AGENA B DEB, 510

Orbit data source: Space-Track

THOR AGENA B DEB, 510 is space debris in LEO originally from a launch on Sat, 29 Sep 1962 UTC launched from the Air Force Western Test Range (AFWTR). Debris objects in space refer to the collection of defunct objects orbiting the Earth. Examples of debris include non-operational satellites, rocket bodies, and fragments generated from explosions, collisions, or faulty payload assembly.

Loading next visibility...
Identifier
510, 1962-049C
Orbit
LEO
Last TLE update
1 day ago
Origin
Manufacturer
Unknown
Mission
Spacecraft
Bus & Motor
Unknown
Mass
Unknown
Launch date (UTC)
1962-09-29 (63 years ago)
Launch vehicle
Unknown
Launch site
Air Force Western Test Range (AFWTR)
Object type
Payload
Rocket body
Debris
Shape & HBR
Unknown
Radar Cross Section
Small (<0.1 m²)

Expand to show TLE details & history

TLE from 1 day ago
0 THOR AGENA B DEB
1 00510U 62049C   25128.08617076  .00000093  00000-0  95139-4 0  9993
2 00510  80.5166   4.7857 0016420  59.7701  70.4621 13.70007563127199
Epoch: 2025-05-08T02:04Z
Definitive object data (Epoch: 2025-05-08T02:04:05.153Z)
Latitude
48.77625°
Longitude
-83.33079°
Altitude
1,003.099 km
Speed
7.357 km/s
True Right ascension
11h 35m 24s
True Declination
48° 36' 41"
Sunlit
Object was in daylight at TLE epoch
Visualization TLE readout
Latitude
55.39291°
Longitude
-87.55419°
Altitude
1,003.903 km
Speed
7.357 km/s
Apparent Right ascension
07h 13m 46s
Apparent Declination
20° 39' 17"
Sunlit
Object is in daylight
Visualization observer readout
Local Sidereal Time
15:58:56
Azimuth
313.481° NW
Elevation
-14.315°
Doppler factor
1
Orbital elements
Apogee altitude
1,008.917 km
Perigee altitude
984.698 km
Semi-major axis
7,374.944 km
Eccentricity
0.001642
Inclination
80.5166°
RAAN
4.7857°
Arg. of periapsis
59.7701°
True anomaly
70.63955°
Mean anomaly
70.4621°
Eccentric anomaly
70.55081°
Mean motion
3.42693 °/min
BSTAR
0.000095139
Orbital period
105.05 mins
Loading maneuver chart data...
Loading SW <> Apogee altitude chart data...
Loading historical data...
Loading historical data...
Loading historical data...
Loading historical data...
Loading historical data...
Loading historical data...
Loading historical data...
Other satellites on launch #49 in the year 1962 (1962-09-29 UTC)

THOR AGENA B DEB Visibility forecast

Observer location: undefined°, undefined°

Span
Click to sort rows by Start time (UTC) header in descending order
Start Az.
Max El. time (UTC)
Max El. Az.
Max El.
End time (UTC)
End Az.
11 mins2025-05-09 16:05:52.194Z172.052° S2025-05-09 16:10:52.194Z116.175° SE40.329°2025-05-09 16:16:52.194Z19.109° NNE
7 mins2025-05-09 17:54:52.194Z257.598° W2025-05-09 17:57:52.194Z291.597° WNW19.479°2025-05-09 18:01:52.194Z335.443° NNW
11 mins2025-05-10 03:05:52.194Z356.255° N2025-05-10 03:10:52.194Z60.315° ENE42.885°2025-05-10 03:16:52.194Z160.809° S
6 mins2025-05-10 04:53:52.194Z304.395° NW2025-05-10 04:56:52.194Z272.75° WNW16.235°2025-05-10 04:59:52.194Z242.401° WSW
|